Location: Cactus School
(34.5700°N, 118.0931°W)
Time: 22:19:38
(UTC-08:00)

OTV 5 (USA 277) - Pass Details

Date: 12 November 2017
Orbit: 404 x 417 km, 43.0° (Epoch: 07 September)

Event Time Altitude Azimuth Distance (km) Brightness Sun altitude
Exits shadow 05:23:21 16° 322° (NW) 1,136 ? -12.7°
Maximum altitude 05:24:36 20° 352° (N) 1,006 ? -12.4°
Drops below altitude 10° 05:27:06 10° 42° (NE) 1,456 ? -11.9°
Sets 05:29:35 0° 60° (ENE) 2,316 ? -11.4°
